Location: Unspecified
(40.7945°N, 111.1337°W)
Time: 10:51:16
(UTC-06:00)

Vanguard 1 - Pass Details

Date: 01 July 2019
Orbit: 653 x 3830 km, 34.3° (Epoch: 20 July)

Event Time Altitude Azimuth Distance (km) Brightness Sun altitude
Rises 23:50:50 0° 216° (SW) 7,512 14.3 -22.2°
Reaches altitude 10° 23:56:07 10° 210° (SSW) 6,718 14.0 -22.6°
Maximum altitude 00:16:56 43° 148° (SSE) 4,591 12.9 -24.0°
Drops below altitude 10° 00:34:27 10° 85° (E) 5,780 13.9 -24.9°
Sets 00:38:28 0° 79° (E) 6,436 14.2 -25.0°
